owner,sensor,date,latitude,longitude,vertical_datum,wind_speed,wind_to_direction,wind_speed_of_gust,qcFlag 
TABS,ioos:station:wmo:42044:1,2011-01-21T00:00:00Z,26.1914,-97.0507,0.0,11.94732606,341.2009143,15.52,'11111222,11111222,11111222' 
TABS,ioos:station:wmo:42044:1,2011-01-21T00:30:00Z,26.1914,-97.0507,0.0,11.65379337,344.3178108,15.16,'11111222,11111222,11111222' 
TABS,ioos:station:wmo:42044:1,2011-01-21T01:00:00Z,26.1914,-97.0507,0.0,11.35954665,340.0813683,15.12,'11111222,11111222,11111222' 
TABS,ioos:station:wmo:42044:1,2011-01-21T01:30:00Z,26.1914,-97.0507,0.0,11.65212856,335.9424963,15.19,'11111222,11111222,11111222' 
TABS,ioos:station:wmo:42044:1,2011-01-21T02:00:00Z,26.1914,-97.0507,0.0,11.95476892,331.7412983,15.3,'11111222,11111222,11111222' 
TABS,ioos:station:wmo:42044:1,2011-01-21T02:30:00Z,26.1914,-97.0507,0.0,11.63652869,333.5669193,14.9,'11111222,11111222,11111222' 
TABS,ioos:station:wmo:42044:1,2011-01-21T03:00:00Z,26.1914,-97.0507,0.0,11.52531561,330.1871504,14.89,'11111222,11111222,11111222' 
TABS,ioos:station:wmo:42044:1,2011-01-21T03:30:00Z,26.1914,-97.0507,0.0,11.20346375,336.3177572,14.65,'11111222,11111222,11111222' 
TABS,ioos:station:wmo:42044:1,2011-01-21T04:00:00Z,26.1914,-97.0507,0.0,11.56741976,327.3539224,15.03,'11111222,11111222,11111222' 
TABS,ioos:station:wmo:42044:1,2011-01-21T04:30:00Z,26.1914,-97.0507,0.0,11.73550595,324.0478799,14.53,'11111222,11111222,11111222' 
TABS,ioos:station:wmo:42044:1,2011-01-21T05:00:00Z,26.1914,-97.0507,0.0,11.53375914,327.2467312,15.04,'11111222,11111222,11111222' 
TABS,ioos:station:wmo:42044:1,2011-01-21T05:30:00Z,26.1914,-97.0507,0.0,11.48363183,329.2585784,14.71,'11111222,11111222,11111222' 
TABS,ioos:station:wmo:42044:1,2011-01-21T06:00:00Z,26.1914,-97.0507,0.0,11.12825683,327.0666534,14.34,'11111222,11111222,11111222' 
TABS,ioos:station:wmo:42044:1,2011-01-21T06:30:00Z,26.1914,-97.0507,0.0,10.80557264,326.3980384,15.46,'11111222,11111222,11111222' 
TABS,ioos:station:wmo:42044:1,2011-01-21T07:00:00Z,26.1914,-97.0507,0.0,10.23958007,325.0216032,13.73,'11111222,11111222,11111222' 
TABS,ioos:station:wmo:42044:1,2011-01-21T07:30:00Z,26.1914,-97.0507,0.0,10.15833156,328.4847377,13.96,'11111222,11111222,11111222' 
TABS,ioos:station:wmo:42044:1,2011-01-21T08:00:00Z,26.1914,-97.0507,0.0,10.12373943,328.6963927,13.92,'11111222,11111222,11111222' 
TABS,ioos:station:wmo:42044:1,2011-01-21T08:30:00Z,26.1914,-97.0507,0.0,9.994568525,331.1011595,14.46,'11111222,11111222,11111222' 
TABS,ioos:station:wmo:42044:1,2011-01-21T09:00:00Z,26.1914,-97.0507,0.0,9.21980477,329.2066277,11.72,'11111222,11111222,11111222' 
TABS,ioos:station:wmo:42044:1,2011-01-21T09:30:00Z,26.1914,-97.0507,0.0,9.216127169,338.4177766,12.2,'11111222,11111222,11111222' 
TABS,ioos:station:wmo:42044:1,2011-01-21T10:00:00Z,26.1914,-97.0507,0.0,9.373649236,333.2434512,12.26,'11111222,11111222,11111222' 
TABS,ioos:station:wmo:42044:1,2011-01-21T10:30:00Z,26.1914,-97.0507,0.0,8.885988971,331.6466954,11.73,'11111222,11111222,11111222' 
TABS,ioos:station:wmo:42044:1,2011-01-21T11:00:00Z,26.1914,-97.0507,0.0,8.221976648,331.1280032,10.89,'11111222,11111222,11111222' 
TABS,ioos:station:wmo:42044:1,2011-01-21T11:30:00Z,26.1914,-97.0507,0.0,8.249557564,327.2729859,10.69,'11111222,11111222,11111222' 
TABS,ioos:station:wmo:42044:1,2011-01-21T12:00:00Z,26.1914,-97.0507,0.0,8.952413083,307.4202218,12.23,'11111222,11111222,11111222' 
TABS,ioos:station:wmo:42044:1,2011-01-21T12:30:00Z,26.1914,-97.0507,0.0,8.879921171,302.490911,10.87,'11111222,11111222,11111222' 
TABS,ioos:station:wmo:42044:1,2011-01-21T13:00:00Z,26.1914,-97.0507,0.0,8.546303294,306.3871074,10.62,'11111222,11111222,11111222' 
TABS,ioos:station:wmo:42044:1,2011-01-21T13:30:00Z,26.1914,-97.0507,0.0,8.208245854,305.5294803,10.49,'11111222,11111222,11111222' 
TABS,ioos:station:wmo:42044:1,2011-01-21T14:00:00Z,26.1914,-97.0507,0.0,8.812547872,302.7703076,10.88,'11111222,11111222,11111222' 
TABS,ioos:station:wmo:42044:1,2011-01-21T14:30:00Z,26.1914,-97.0507,0.0,8.974686624,305.0180888,11.35,'11111222,11111222,11111222' 
TABS,ioos:station:wmo:42044:1,2011-01-21T15:00:00Z,26.1914,-97.0507,0.0,8.650578015,307.5321593,11.13,'11111222,11111222,11111222' 
TABS,ioos:station:wmo:42044:1,2011-01-21T15:30:00Z,26.1914,-97.0507,0.0,8.967719889,313.9155641,11.5,'11111222,11111222,11111222' 
TABS,ioos:station:wmo:42044:1,2011-01-21T16:00:00Z,26.1914,-97.0507,0.0,8.555255695,308.4505342,10.69,'11111222,11111222,11111222' 
TABS,ioos:station:wmo:42044:1,2011-01-21T16:30:00Z,26.1914,-97.0507,0.0,8.655293178,309.7970023,11.07,'11111222,11111222,11111222' 
TABS,ioos:station:wmo:42044:1,2011-01-21T17:00:00Z,26.1914,-97.0507,0.0,7.96414465,313.6771398,10.55,'11111222,11111222,11111222' 
TABS,ioos:station:wmo:42044:1,2011-01-21T17:30:00Z,26.1914,-97.0507,0.0,7.133140963,335.4827684,9.41,'11111222,11111222,11111222' 
TABS,ioos:station:wmo:42044:1,2011-01-21T18:00:00Z,26.1914,-97.0507,0.0,7.03386096,346.516761,9.69,'11111222,11111222,11111222' 
TABS,ioos:station:wmo:42044:1,2011-01-21T18:30:00Z,26.1914,-97.0507,0.0,6.75,343.7396229,9.13,'11111222,11111222,11111222' 
TABS,ioos:station:wmo:42044:1,2011-01-21T19:00:00Z,26.1914,-97.0507,0.0,6.063200475,343.7169435,7.81,'11111222,11111222,11111222' 
TABS,ioos:station:wmo:42044:1,2011-01-21T19:30:00Z,26.1914,-97.0507,0.0,4.435696112,343.3624453,6.28,'11111222,11111222,11111222' 
TABS,ioos:station:wmo:42044:1,2011-01-21T20:00:00Z,26.1914,-97.0507,0.0,4.799416631,344.2840058,6.34,'11111222,11111222,11111222' 
TABS,ioos:station:wmo:42044:1,2011-01-21T20:30:00Z,26.1914,-97.0507,0.0,4.610878441,333.0457963,5.87,'11111222,11111222,11111222' 
TABS,ioos:station:wmo:42044:1,2011-01-21T21:00:00Z,26.1914,-97.0507,0.0,4.642843956,340.6282537,6.42,'11111222,11111222,11111222' 
TABS,ioos:station:wmo:42044:1,2011-01-21T21:30:00Z,26.1914,-97.0507,0.0,4.373934156,342.4348159,5.98,'11111222,11111222,11111222' 
TABS,ioos:station:wmo:42044:1,2011-01-21T22:00:00Z,26.1914,-97.0507,0.0,4.5,343.7396229,6.49,'11111222,11111222,11111222' 
TABS,ioos:station:wmo:42044:1,2011-01-21T22:30:00Z,26.1914,-97.0507,0.0,4.667343998,347.1248181,6.57,'11111222,11111222,11111222' 
TABS,ioos:station:wmo:42044:1,2011-01-21T23:00:00Z,26.1914,-97.0507,0.0,3.838971216,20.747936,5.68,'11111222,11111222,11111222' 
TABS,ioos:station:wmo:42044:1,2011-01-21T23:30:00Z,26.1914,-97.0507,0.0,3.480804505,16.35213485,5.11,'11111222,11111222,11111222' 
TABS,ioos:station:wmo:42044:1,2011-01-22T00:00:00Z,26.1914,-97.0507,0.0,3.637856512,16.94036516,5.49,'11111222,11111222,11111222' 
TABS,ioos:station:wmo:42044:1,2011-01-22T00:30:00Z,26.1914,-97.0507,0.0,3.626265296,32.1558315,5.46,'11111222,11111222,11111222' 
TABS,ioos:station:wmo:42044:1,2011-01-22T01:00:00Z,26.1914,-97.0507,0.0,2.979546945,35.023235,4.59,'11111222,11111222,11111222' 
TABS,ioos:station:wmo:42044:1,2011-01-22T01:30:00Z,26.1914,-97.0507,0.0,2.420020661,37.10635849,3.72,'11111222,11111222,11111222' 
TABS,ioos:station:wmo:42044:1,2011-01-22T02:00:00Z,26.1914,-97.0507,0.0,2.715032228,64.47278298,4.83,'11111222,11111222,11111222' 
TABS,ioos:station:wmo:42044:1,2011-01-22T02:30:00Z,26.1914,-97.0507,0.0,2.688215021,52.40508459,4.36,'11111222,11111222,11111222' 
TABS,ioos:station:wmo:42044:1,2011-01-22T03:00:00Z,26.1914,-97.0507,0.0,3.376818029,47.76022935,4.72,'11111222,11111222,11111222' 
TABS,ioos:station:wmo:42044:1,2011-01-22T03:30:00Z,26.1914,-97.0507,0.0,3.219767072,15.67627125,4.54,'11111222,11111222,11111222' 
TABS,ioos:station:wmo:42044:1,2011-01-22T04:00:00Z,26.1914,-97.0507,0.0,2.906974372,26.12405156,3.81,'11111222,11111222,11111222' 
TABS,ioos:station:wmo:42044:1,2011-01-22T04:30:00Z,26.1914,-97.0507,0.0,4.138816256,356.259392,5.36,'11111222,11111222,11111222' 
TABS,ioos:station:wmo:42044:1,2011-01-22T05:00:00Z,26.1914,-97.0507,0.0,4.451617683,1.54446631,5.83,'11111222,11111222,11111222' 
TABS,ioos:station:wmo:42044:1,2011-01-22T05:30:00Z,26.1914,-97.0507,0.0,5.063763423,354.4468315,6.3,'11111222,11111222,11111222' 
TABS,ioos:station:wmo:42044:1,2011-01-22T06:00:00Z,26.1914,-97.0507,0.0,3.950316443,359.2745669,4.95,'11111222,11144222,11111222' 
TABS,ioos:station:wmo:42044:1,2011-01-22T06:30:00Z,26.1914,-97.0507,0.0,4.816274494,341.9786994,6.22,'11111222,11111222,11111222' 
TABS,ioos:station:wmo:42044:1,2011-01-22T07:00:00Z,26.1914,-97.0507,0.0,4.641691502,336.9147099,5.87,'11111222,11111222,11111222' 
TABS,ioos:station:wmo:42044:1,2011-01-22T07:30:00Z,26.1914,-97.0507,0.0,3.947277543,350.2272703,5.19,'11111222,11111222,11111222' 
TABS,ioos:station:wmo:42044:1,2011-01-22T08:00:00Z,26.1914,-97.0507,0.0,3.677200022,343.7333903,4.63,'11111222,11111222,11111222' 
TABS,ioos:station:wmo:42044:1,2011-01-22T08:30:00Z,26.1914,-97.0507,0.0,3.656036105,356.7069578,4.65,'11111222,11111222,11111222' 
TABS,ioos:station:wmo:42044:1,2011-01-22T09:00:00Z,26.1914,-97.0507,0.0,4.04783893,348.7454025,5.17,'11111222,11111222,11111222' 
TABS,ioos:station:wmo:42044:1,2011-01-22T09:30:00Z,26.1914,-97.0507,0.0,3.962852508,344.0345711,4.78,'11111222,11111222,11111222' 
TABS,ioos:station:wmo:42044:1,2011-01-22T10:00:00Z,26.1914,-97.0507,0.0,4.795883652,331.8852029,5.52,'11111222,11111222,11111222' 
TABS,ioos:station:wmo:42044:1,2011-01-22T10:30:00Z,26.1914,-97.0507,0.0,5.320225559,325.4136959,6.37,'11111222,11111222,11111222' 
TABS,ioos:station:wmo:42044:1,2011-01-22T11:00:00Z,26.1914,-97.0507,0.0,5.565150492,315.5094995,6.57,'11111222,11111222,11111222' 
TABS,ioos:station:wmo:42044:1,2011-01-22T11:30:00Z,26.1914,-97.0507,0.0,5.247418413,324.4621949,6.56,'11111222,11111222,11111222' 
TABS,ioos:station:wmo:42044:1,2011-01-22T12:00:00Z,26.1914,-97.0507,0.0,5.295450878,330.9662716,6.69,'11111222,11111222,11111222' 
TABS,ioos:station:wmo:42044:1,2011-01-22T12:30:00Z,26.1914,-97.0507,0.0,5.295025968,333.289626,6.77,'11111222,11111222,11111222' 
TABS,ioos:station:wmo:42044:1,2011-01-22T13:00:00Z,26.1914,-97.0507,0.0,5.350710233,335.0152994,6.67,'11111222,11111222,11111222' 
TABS,ioos:station:wmo:42044:1,2011-01-22T13:30:00Z,26.1914,-97.0507,0.0,5.213079704,337.3207965,6.47,'11111222,11111222,11111222' 
TABS,ioos:station:wmo:42044:1,2011-01-22T14:00:00Z,26.1914,-97.0507,0.0,4.943278264,337.8971043,6.1,'11111222,11111222,11111222' 
TABS,ioos:station:wmo:42044:1,2011-01-22T14:30:00Z,26.1914,-97.0507,0.0,4.81,337.3799775,5.84,'11111222,11111222,11111222' 
TABS,ioos:station:wmo:42044:1,2011-01-22T15:00:00Z,26.1914,-97.0507,0.0,4.053899357,337.67352,5.03,'11111222,11111222,11111222' 
TABS,ioos:station:wmo:42044:1,2011-01-22T15:30:00Z,26.1914,-97.0507,0.0,3.593396722,338.790613,4.65,'11111222,11111222,11111222' 
TABS,ioos:station:wmo:42044:1,2011-01-22T16:00:00Z,26.1914,-97.0507,0.0,3.660122949,337.8496034,4.49,'11111222,11111222,11111222' 
TABS,ioos:station:wmo:42044:1,2011-01-22T16:30:00Z,26.1914,-97.0507,0.0,3.380310637,329.4140012,3.98,'11111222,11111222,11111222' 
TABS,ioos:station:wmo:42044:1,2011-01-22T17:00:00Z,26.1914,-97.0507,0.0,3.410131962,313.0986628,4.21,'11111222,11111222,11111222' 
TABS,ioos:station:wmo:42044:1,2011-01-22T17:30:00Z,26.1914,-97.0507,0.0,3.140700559,313.4517407,3.97,'11111222,11111222,11111222' 
TABS,ioos:station:wmo:42044:1,2011-01-22T18:00:00Z,26.1914,-97.0507,0.0,3.224686031,315.7537413,4.03,'11111222,11111222,11111222' 
TABS,ioos:station:wmo:42044:1,2011-01-22T18:30:00Z,26.1914,-97.0507,0.0,3.048688243,320.7236976,3.65,'11111222,11111222,11111222' 
TABS,ioos:station:wmo:42044:1,2011-01-22T19:00:00Z,26.1914,-97.0507,0.0,3.237360036,330.5842595,3.8,'11111222,11111222,11111222' 
TABS,ioos:station:wmo:42044:1,2011-01-22T19:30:00Z,26.1914,-97.0507,0.0,2.82846248,343.3587919,3.36,'11111222,11111222,11111222' 
TABS,ioos:station:wmo:42044:1,2011-01-22T20:00:00Z,26.1914,-97.0507,0.0,2.267355288,341.4849736,2.89,'11111222,11111222,11111222' 
TABS,ioos:station:wmo:42044:1,2011-01-22T20:30:00Z,26.1914,-97.0507,0.0,1.951665955,351.4545276,2.66,'11111222,11111222,11111222' 
TABS,ioos:station:wmo:42044:1,2011-01-22T21:00:00Z,26.1914,-97.0507,0.0,3.296012743,26.87574241,4.23,'11111222,11111222,11111222' 
TABS,ioos:station:wmo:42044:1,2011-01-22T21:30:00Z,26.1914,-97.0507,0.0,4.016217126,34.24372445,4.97,'11111222,11111222,11111222' 
TABS,ioos:station:wmo:42044:1,2011-01-22T22:00:00Z,26.1914,-97.0507,0.0,3.462036973,37.13439698,4.65,'11111222,11111222,11111222' 
TABS,ioos:station:wmo:42044:1,2011-01-22T22:30:00Z,26.1914,-97.0507,0.0,3.643967618,50.45581513,4.7,'11111222,11111222,11111222' 
TABS,ioos:station:wmo:42044:1,2011-01-22T23:00:00Z,26.1914,-97.0507,0.0,3.499957143,65.70471213,4.35,'11111222,11111222,11111222' 
TABS,ioos:station:wmo:42044:1,2011-01-22T23:30:00Z,26.1914,-97.0507,0.0,3.340957946,91.37250936,4.14,'11111222,11111222,11111222' 
TABS,ioos:station:wmo:42044:1,2011-01-23T00:00:00Z,26.1914,-97.0507,0.0,3.763469144,101.340184,4.91,'11111222,11111222,11111222' 
TABS,ioos:station:wmo:42044:1,2011-01-23T00:30:00Z,26.1914,-97.0507,0.0,4.140169079,104.4058427,5.38,'11111222,11111222,11111222' 
TABS,ioos:station:wmo:42044:1,2011-01-23T01:00:00Z,26.1914,-97.0507,0.0,4.074432476,109.9474382,5.27,'11111222,11111222,11111222' 
TABS,ioos:station:wmo:42044:1,2011-01-23T01:30:00Z,26.1914,-97.0507,0.0,3.822943892,120.321516,4.87,'11111222,11111222,11111222' 
TABS,ioos:station:wmo:42044:1,2011-01-23T02:00:00Z,26.1914,-97.0507,0.0,4.384803302,131.5796057,5.72,'11111222,11111222,11111222' 
TABS,ioos:station:wmo:42044:1,2011-01-23T02:30:00Z,26.1914,-97.0507,0.0,4.095424276,125.3591198,5.69,'11111222,11111222,11111222' 
TABS,ioos:station:wmo:42044:1,2011-01-23T03:00:00Z,26.1914,-97.0507,0.0,4.316676963,128.8881593,5.72,'11111222,11111222,11111222' 
TABS,ioos:station:wmo:42044:1,2011-01-23T03:30:00Z,26.1914,-97.0507,0.0,4.294240329,133.2074624,5.84,'11111222,11111222,11111222' 
TABS,ioos:station:wmo:42044:1,2011-01-23T04:00:00Z,26.1914,-97.0507,0.0,4.62481351,131.7573225,5.83,'11111222,11111222,11111222' 
TABS,ioos:station:wmo:42044:1,2011-01-23T04:30:00Z,26.1914,-97.0507,0.0,4.666926183,134.8266931,6.22,'11111222,11111222,11111222' 
TABS,ioos:station:wmo:42044:1,2011-01-23T05:00:00Z,26.1914,-97.0507,0.0,4.602477594,137.9945898,5.82,'11111222,11111222,11111222' 
TABS,ioos:station:wmo:42044:1,2011-01-23T05:30:00Z,26.1914,-97.0507,0.0,4.990641241,144.0488878,6.17,'11111222,11111222,11111222' 
TABS,ioos:station:wmo:42044:1,2011-01-23T06:00:00Z,26.1914,-97.0507,0.0,4.50405373,141.4000928,5.47,'11111222,11111222,11111222' 
TABS,ioos:station:wmo:42044:1,2011-01-23T06:30:00Z,26.1914,-97.0507,0.0,4.753861588,145.9759452,5.95,'11111222,11111222,11111222' 
TABS,ioos:station:wmo:42044:1,2011-01-23T07:00:00Z,26.1914,-97.0507,0.0,4.711910441,151.4771586,5.96,'11111222,11111222,11111222' 
TABS,ioos:station:wmo:42044:1,2011-01-23T07:30:00Z,26.1914,-97.0507,0.0,4.954200238,156.6953744,6.38,'11111222,11111222,11111222' 
TABS,ioos:station:wmo:42044:1,2011-01-23T08:00:00Z,26.1914,-97.0507,0.0,4.618625337,158.9360291,5.67,'11111222,11111222,11111222' 
TABS,ioos:station:wmo:42044:1,2011-01-23T08:30:00Z,26.1914,-97.0507,0.0,5.025584543,160.5918412,6.15,'11111222,11111222,11111222' 
TABS,ioos:station:wmo:42044:1,2011-01-23T09:00:00Z,26.1914,-97.0507,0.0,5.291672703,156.9722811,6.94,'11111222,11111222,11111222' 
TABS,ioos:station:wmo:42044:1,2011-01-23T09:30:00Z,26.1914,-97.0507,0.0,4.431895757,153.3195896,6.27,'11111222,11111222,11111222' 
TABS,ioos:station:wmo:42044:1,2011-01-23T10:00:00Z,26.1914,-97.0507,0.0,4.08871618,154.8140626,4.96,'11111222,11111222,11111222' 
TABS,ioos:station:wmo:42044:1,2011-01-23T10:30:00Z,26.1914,-97.0507,0.0,4.194877829,148.8491332,5.22,'11111222,11111222,11111222' 
TABS,ioos:station:wmo:42044:1,2011-01-23T11:00:00Z,26.1914,-97.0507,0.0,4.157018162,144.3985267,5.15,'11111222,11111222,11111222' 
TABS,ioos:station:wmo:42044:1,2011-01-23T11:30:00Z,26.1914,-97.0507,0.0,3.952163964,142.6084896,4.7,'11111222,11111222,11111222' 
TABS,ioos:station:wmo:42044:1,2011-01-23T12:00:00Z,26.1914,-97.0507,0.0,3.492062428,128.8395074,4.24,'11111222,11111222,11111222' 
TABS,ioos:station:wmo:42044:1,2011-01-23T12:30:00Z,26.1914,-97.0507,0.0,3.333766639,123.4997427,4.08,'11111222,11111222,11111222' 
TABS,ioos:station:wmo:42044:1,2011-01-23T13:00:00Z,26.1914,-97.0507,0.0,2.85,126.8702323,3.47,'11111222,11111222,11111222' 
TABS,ioos:station:wmo:42044:1,2011-01-23T13:30:00Z,26.1914,-97.0507,0.0,2.482297323,123.4983579,3.09,'11111222,11111222,11111222' 
TABS,ioos:station:wmo:42044:1,2011-01-23T14:00:00Z,26.1914,-97.0507,0.0,3.670013624,127.0263509,4.56,'11111222,11111222,11111222' 
TABS,ioos:station:wmo:42044:1,2011-01-23T14:30:00Z,26.1914,-97.0507,0.0,3.190062695,127.229448,3.96,'11111222,11111222,11111222' 
TABS,ioos:station:wmo:42044:1,2011-01-23T15:00:00Z,26.1914,-97.0507,0.0,3.326048707,127.180308,4.01,'11111222,11111222,11111222' 
TABS,ioos:station:wmo:42044:1,2011-01-23T15:30:00Z,26.1914,-97.0507,0.0,3.34822341,124.7820753,4.48,'11111222,11111222,11111222' 
TABS,ioos:station:wmo:42044:1,2011-01-23T16:00:00Z,26.1914,-97.0507,0.0,3.532930795,120.6303478,4.62,'11111222,11111222,11111222' 
TABS,ioos:station:wmo:42044:1,2011-01-23T16:30:00Z,26.1914,-97.0507,0.0,3.432855954,159.7176988,4.99,'11111222,11111222,11111222' 
TABS,ioos:station:wmo:42044:1,2011-01-23T17:00:00Z,26.1914,-97.0507,0.0,3.249923076,150.9114271,5.6,'11111222,11111222,11111222' 
TABS,ioos:station:wmo:42044:1,2011-01-23T17:30:00Z,26.1914,-97.0507,0.0,3.919923469,137.0678527,4.96,'11111222,11111222,11111222' 
TABS,ioos:station:wmo:42044:1,2011-01-23T18:00:00Z,26.1914,-97.0507,0.0,3.220558958,127.9377295,4.12,'11111222,11111222,11111222' 
TABS,ioos:station:wmo:42044:1,2011-01-23T18:30:00Z,26.1914,-97.0507,0.0,2.934365349,148.8021211,3.83,'11111222,11111222,11111222' 
TABS,ioos:station:wmo:42044:1,2011-01-23T19:00:00Z,26.1914,-97.0507,0.0,3.697188121,131.7110807,4.55,'11111222,11111222,11111222' 
TABS,ioos:station:wmo:42044:1,2011-01-23T19:30:00Z,26.1914,-97.0507,0.0,3.114000642,126.9070311,3.9,'11111222,11111222,11111222' 
TABS,ioos:station:wmo:42044:1,2011-01-23T20:00:00Z,26.1914,-97.0507,0.0,5.978904582,142.1337202,8.48,'11111222,11111222,11111222' 
TABS,ioos:station:wmo:42044:1,2011-01-23T20:30:00Z,26.1914,-97.0507,0.0,2.887784618,109.6275064,4.06,'11111222,11111222,11111222' 
TABS,ioos:station:wmo:42044:1,2011-01-23T21:00:00Z,26.1914,-97.0507,0.0,2.486966023,96.69678287,3.19,'11111222,11111222,11111222' 
TABS,ioos:station:wmo:42044:1,2011-01-23T21:30:00Z,26.1914,-97.0507,0.0,3.177624899,104.9550327,3.98,'11111222,11111222,11111222' 
TABS,ioos:station:wmo:42044:1,2011-01-23T22:00:00Z,26.1914,-97.0507,0.0,3.53243542,108.9995448,4.36,'11111222,11111222,11111222' 
TABS,ioos:station:wmo:42044:1,2011-01-23T22:30:00Z,26.1914,-97.0507,0.0,3.687817783,102.5291993,4.64,'11111222,11111222,11111222' 
TABS,ioos:station:wmo:42044:1,2011-01-23T23:00:00Z,26.1914,-97.0507,0.0,3.435956926,101.244921,4.39,'11111222,11111222,11111222' 
TABS,ioos:station:wmo:42044:1,2011-01-23T23:30:00Z,26.1914,-97.0507,0.0,3.183080269,92.52124293,3.93,'11111222,11111222,11111222' 
TABS,ioos:station:wmo:42044:1,2011-01-24T00:00:00Z,26.1914,-97.0507,0.0,3.106444913,86.30820173,3.79,'11111222,11111222,11111222' 
TABS,ioos:station:wmo:42044:1,2011-01-24T00:30:00Z,26.1914,-97.0507,0.0,3.470864446,83.71409096,4.24,'11111222,11111222,11111222' 
TABS,ioos:station:wmo:42044:1,2011-01-24T01:00:00Z,26.1914,-97.0507,0.0,3.930114502,89.56221624,4.89,'11111222,11111222,11111222' 
TABS,ioos:station:wmo:42044:1,2011-01-24T01:30:00Z,26.1914,-97.0507,0.0,4.557246976,99.85543392,5.92,'11111222,11111222,11111222' 
TABS,ioos:station:wmo:42044:1,2011-01-24T02:00:00Z,26.1914,-97.0507,0.0,3.663140729,85.14502376,4.43,'11111222,11111222,11111222' 
TABS,ioos:station:wmo:42044:1,2011-01-24T02:30:00Z,26.1914,-97.0507,0.0,2.635317818,208.3156252,5.53,'11111222,11111222,11111222' 
TABS,ioos:station:wmo:42044:1,2011-01-24T03:00:00Z,26.1914,-97.0507,0.0,2.345804766,219.1176734,3.06,'11111222,11111222,11111222' 
TABS,ioos:station:wmo:42044:1,2011-01-24T03:30:00Z,26.1914,-97.0507,0.0,2.392070233,95.75866762,3.33,'11111222,11111222,11111222' 
TABS,ioos:station:wmo:42044:1,2011-01-24T04:00:00Z,26.1914,-97.0507,0.0,1.906016789,294.8170728,3.16,'11111222,11111222,11111222' 
TABS,ioos:station:wmo:42044:1,2011-01-24T04:30:00Z,26.1914,-97.0507,0.0,1.817965896,291.6257851,3.18,'11111222,11111222,11111222' 
TABS,ioos:station:wmo:42044:1,2011-01-24T05:00:00Z,26.1914,-97.0507,0.0,2.632299375,339.7749774,3.82,'11111222,11111222,11111222' 
TABS,ioos:station:wmo:42044:1,2011-01-24T05:30:00Z,26.1914,-97.0507,0.0,1.861316738,12.09451834,2.69,'11111222,11111222,11111222' 
TABS,ioos:station:wmo:42044:1,2011-01-24T06:00:00Z,26.1914,-97.0507,0.0,2.585207922,353.7819867,3.85,'11111222,11111222,11111222' 
TABS,ioos:station:wmo:42044:1,2011-01-24T06:30:00Z,26.1914,-97.0507,0.0,0.61204575,4.685678423,1.24,'11111222,11111222,11111222' 
TABS,ioos:station:wmo:42044:1,2011-01-24T07:00:00Z,26.1914,-97.0507,0.0,0.952102936,126.0277101,1.86,'11111222,11111222,11111222' 
TABS,ioos:station:wmo:42044:1,2011-01-24T07:30:00Z,26.1914,-97.0507,0.0,0.435660418,9.245880666,1.34,'11111222,11111222,11111222' 
TABS,ioos:station:wmo:42044:1,2011-01-24T08:00:00Z,26.1914,-97.0507,0.0,1.549516053,108.4353266,2.65,'11111222,11111222,11111222' 
TABS,ioos:station:wmo:42044:1,2011-01-24T08:30:00Z,26.1914,-97.0507,0.0,0.251793566,353.1570321,1.44,'11111222,11111222,11111222' 
TABS,ioos:station:wmo:42044:1,2011-01-24T09:00:00Z,26.1914,-97.0507,0.0,3.43700451,315.9429478,5.38,'11111222,11111222,11111222' 
TABS,ioos:station:wmo:42044:1,2011-01-24T09:30:00Z,26.1914,-97.0507,0.0,4.762121376,326.4766484,6.37,'11111222,11111222,11111222' 
TABS,ioos:station:wmo:42044:1,2011-01-24T10:00:00Z,26.1914,-97.0507,0.0,5.903329569,327.5212293,7.92,'11111222,11111222,11111222' 
TABS,ioos:station:wmo:42044:1,2011-01-24T10:30:00Z,26.1914,-97.0507,0.0,7.108825501,331.8846988,9.79,'11111222,11111222,11111222' 
TABS,ioos:station:wmo:42044:1,2011-01-24T11:00:00Z,26.1914,-97.0507,0.0,6.937038273,336.4650533,9.45,'11111222,11111222,11111222' 
TABS,ioos:station:wmo:42044:1,2011-01-24T11:30:00Z,26.1914,-97.0507,0.0,7.278852932,344.3788036,9.88,'11111222,11111222,11111222' 
TABS,ioos:station:wmo:42044:1,2011-01-24T12:00:00Z,26.1914,-97.0507,0.0,7.797416239,334.880855,9.8,'11111222,11111222,11111222' 
TABS,ioos:station:wmo:42044:1,2011-01-24T12:30:00Z,26.1914,-97.0507,0.0,8.159423999,336.9856609,10.65,'11111222,11111222,11111222' 
TABS,ioos:station:wmo:42044:1,2011-01-24T13:00:00Z,26.1914,-97.0507,0.0,8.604190839,329.3216106,10.99,'11111222,11111222,11111222' 
TABS,ioos:station:wmo:42044:1,2011-01-24T13:30:00Z,26.1914,-97.0507,0.0,8.700953971,326.9125061,11.34,'11111222,11111222,11111222' 
TABS,ioos:station:wmo:42044:1,2011-01-24T14:00:00Z,26.1914,-97.0507,0.0,8.875956287,317.5568531,11.64,'11111222,11111222,11111222' 
TABS,ioos:station:wmo:42044:1,2011-01-24T14:30:00Z,26.1914,-97.0507,0.0,9.287997631,316.6140441,11.74,'11111222,11111222,11111222' 
TABS,ioos:station:wmo:42044:1,2011-01-24T15:00:00Z,26.1914,-97.0507,0.0,8.951072561,317.1276871,11.22,'11111222,11111222,11111222' 
TABS,ioos:station:wmo:42044:1,2011-01-24T15:30:00Z,26.1914,-97.0507,0.0,8.476585397,310.4545701,10.99,'11111222,11111222,11111222' 
TABS,ioos:station:wmo:42044:1,2011-01-24T16:00:00Z,26.1914,-97.0507,0.0,8.273584471,315.5875218,10.84,'11111222,11111222,11111222' 
TABS,ioos:station:wmo:42044:1,2011-01-24T16:30:00Z,26.1914,-97.0507,0.0,7.972201703,310.5232465,9.78,'11111222,11111222,11111222' 
TABS,ioos:station:wmo:42044:1,2011-01-24T17:00:00Z,26.1914,-97.0507,0.0,8.046545843,302.9790141,9.96,'11111222,11111222,11111222' 
TABS,ioos:station:wmo:42044:1,2011-01-24T17:30:00Z,26.1914,-97.0507,0.0,7.792335978,317.4442739,9.45,'11111222,11111222,11111222' 
TABS,ioos:station:wmo:42044:1,2011-01-24T18:00:00Z,26.1914,-97.0507,0.0,6.579544057,310.808997,8.74,'11111222,11111222,11111222' 
TABS,ioos:station:wmo:42044:1,2011-01-24T18:30:00Z,26.1914,-97.0507,0.0,7.296033169,306.6970455,9.02,'11111222,11111222,11111222' 